Newport, VT

1:57 PM EDT on June 23, 2017 (GMT -0400)
Newport State

Weather History for KEFK - February, 2014

Change the Weather History Date:

Friday, February 28, 2014

  Actual Average Record
Temperature  
Mean Temperature 4 °F -  
Max Temperature 12 °F 35 °F 53 °F (1983)
Min Temperature -4 °F 9 °F -17 °F (1950)
Degree Days  
Heating Degree Days 61    
Moisture  
Dew Point -11 °F    
Average Humidity 48    
Maximum Humidity 64    
Minimum Humidity 26    
Precipitation  
Precipitation 0.00 in - - ()
Sea Level Pressure  
Sea Level Pressure 30.17 in    
Wind  
Wind Speed 9 mph (West)    
Max Wind Speed 17 mph    
Max Gust Speed 25 mph    
Visibility 10 miles    
Events      
Averages and records for this station are not official NWS values.
T = Trace of Precipitation, MM = Missing Value Source: NWS Daily Summary

Daily Weather History Graph

Daily Weather History Graph

Search for Another Location

Airport or City:

Trip Planner

Search our weather history database for the weather conditions in past years. The results will help you decide how hot, cold, wet, or windy it might be!

Date:

Astronomy

Feb. 28, 2014 Rise Set
Actual Time 6:28 AM EST 5:35 PM EST
Civil Twilight 5:59 AM EST 6:04 PM EST
Nautical Twilight 5:25 AM EST 6:38 PM EST
Astronomical Twilight 4:51 AM EST 7:12 PM EST
Moon 5:41 AM EST (2/28) 5:09 PM EST (2/28)
Length of Visible Light 12h 05m
Length of Day
11h 06m
Waning Crescent, 1% of the Moon is Illuminated
Feb 28
Waning Crescent
Mar 1
New
Mar 8
First Quarter
Mar 16
Full
Mar 23
Last Quarter

Hourly Weather History & Observations

Time (EST) Temp. Windchill Dew Point Humidity Pressure Visibility Wind Dir Wind Speed Gust Speed Precip Events Conditions
12:15 AM 7.9 °F -8.0 °F -7.1 °F 51% 29.80 in 10.0 mi SSW 12.7 mph 17.3 mph N/A   Overcast
12:35 AM 7.5 °F -6.9 °F -4.5 °F 58% 29.81 in 10.0 mi SW 10.4 mph - N/A   Overcast
12:55 AM 6.8 °F -7.8 °F -4.0 °F 61% 29.82 in 7.0 mi SSW 10.4 mph - N/A   Overcast
1:15 AM 6.8 °F -6.9 °F -3.6 °F 62% 29.84 in 7.0 mi SW 9.2 mph - N/A   Overcast
1:35 AM 6.8 °F -5.9 °F -4.0 °F 61% 29.84 in 7.0 mi SW 8.1 mph - N/A   Overcast
1:55 AM 6.8 °F -4.8 °F -4.2 °F 61% 29.86 in 7.0 mi SW 6.9 mph - N/A   Overcast
2:15 AM 6.4 °F -3.9 °F -4.0 °F 62% 29.87 in 7.0 mi SW 5.8 mph - N/A   Overcast
2:35 AM 6.4 °F - -3.5 °F 64% 29.88 in 10.0 mi Calm Calm - N/A   Mostly Cloudy
2:55 AM 6.4 °F - -4.4 °F 61% 29.90 in 10.0 mi Calm Calm - N/A   Clear
3:15 AM 6.1 °F -8.7 °F -4.4 °F 62% 29.90 in 10.0 mi West 10.4 mph 17.3 mph N/A   Clear
3:35 AM 5.9 °F -11.2 °F -4.9 °F 61% 29.92 in 10.0 mi West 13.8 mph 20.7 mph N/A   Clear
3:55 AM 5.9 °F -12.4 °F -4.4 °F 63% 29.94 in 7.0 mi West 16.1 mph 20.7 mph N/A   Clear
4:15 AM 5.7 °F -11.4 °F -4.2 °F 64% 29.95 in 7.0 mi West 13.8 mph 20.7 mph N/A   Scattered Clouds
4:35 AM 5.4 °F -11.1 °F -5.1 °F 62% 29.97 in 10.0 mi West 12.7 mph 19.6 mph N/A   Scattered Clouds
4:55 AM 5.0 °F -10.8 °F -5.8 °F 61% 29.98 in 10.0 mi West 11.5 mph 16.1 mph N/A   Clear
5:15 AM 4.8 °F -8.3 °F -5.6 °F 62% 30.00 in 10.0 mi West 8.1 mph 18.4 mph N/A   Clear
5:35 AM 4.1 °F -11.1 °F -5.8 °F 64% 30.02 in 10.0 mi West 10.4 mph - N/A   Mostly Cloudy
5:55 AM 4.1 °F -11.1 °F -6.0 °F 63% 30.04 in 10.0 mi WSW 10.4 mph - N/A   Scattered Clouds
6:15 AM 3.7 °F -10.6 °F -6.7 °F 62% 30.05 in 10.0 mi West 9.2 mph 16.1 mph N/A   Clear
6:35 AM 3.2 °F -11.3 °F -7.4 °F 61% 30.06 in 10.0 mi West 9.2 mph - N/A   Clear
6:55 AM 2.7 °F -8.4 °F -7.2 °F 63% 30.07 in 10.0 mi West 5.8 mph - N/A   Clear
7:20 AM 3.2 °F -12.2 °F -6.7 °F 63% 30.09 in 5.0 mi West 10.4 mph - N/A   Haze
7:35 AM 3.6 °F -13.4 °F -6.7 °F 62% 30.10 in 5.0 mi West 12.7 mph 18.4 mph N/A   Haze
7:55 AM 3.6 °F -16.0 °F -8.1 °F 58% 30.11 in 7.0 mi WSW 17.3 mph 25.3 mph N/A   Overcast
8:15 AM 3.6 °F -14.8 °F -9.2 °F 55% 30.13 in 10.0 mi West 15.0 mph 24.2 mph N/A   Overcast
8:35 AM 3.6 °F -12.6 °F -9.4 °F 55% 30.14 in 10.0 mi West 11.5 mph 23.0 mph N/A   Overcast
8:55 AM 3.9 °F -13.0 °F -10.1 °F 52% 30.15 in 10.0 mi WSW 12.7 mph 19.6 mph N/A   Scattered Clouds
9:15 AM 4.5 °F -11.5 °F -10.1 °F 51% 30.17 in 10.0 mi West 11.5 mph 18.4 mph N/A   Clear
9:35 AM 4.8 °F -13.8 °F -10.5 °F 49% 30.17 in 10.0 mi WSW 16.1 mph 23.0 mph N/A   Clear
9:55 AM 5.7 °F -10.7 °F -10.1 °F 48% 30.18 in 10.0 mi West 12.7 mph 19.6 mph N/A   Clear
10:15 AM 5.9 °F -10.5 °F -9.9 °F 48% 30.20 in 10.0 mi WSW 12.7 mph 17.3 mph N/A   Clear
10:35 AM 6.4 °F -9.8 °F -9.4 °F 48% 30.21 in 10.0 mi WSW 12.7 mph 20.7 mph N/A   Clear
10:55 AM 7.5 °F -6.0 °F -9.8 °F 45% 30.22 in 10.0 mi WSW 9.2 mph 18.4 mph N/A   Clear
11:15 AM 8.4 °F -5.7 °F -9.9 °F 43% 30.23 in 10.0 mi West 10.4 mph 19.6 mph N/A   Clear
11:35 AM 9.0 °F -5.9 °F -9.4 °F 43% 30.23 in 10.0 mi WSW 11.5 mph 19.6 mph N/A   Clear
11:55 AM 9.5 °F -6.6 °F -9.9 °F 41% 30.24 in 10.0 mi West 13.8 mph - N/A   Clear
12:15 PM 9.9 °F -4.0 °F -10.8 °F 39% 30.24 in 10.0 mi WNW 10.4 mph 17.3 mph N/A   Clear
12:35 PM 10.2 °F -2.7 °F -11.0 °F 38% 30.24 in 10.0 mi West 9.2 mph - N/A   Clear
1:00 PM 11.3 °F -4.9 °F -9.9 °F 38% 30.24 in 10.0 mi West 15.0 mph 19.6 mph N/A   Clear
1:15 PM 11.5 °F -1.9 °F -10.5 °F 37% 30.25 in 7.0 mi WNW 10.4 mph 18.4 mph N/A   Clear
1:35 PM 11.8 °F -3.0 °F -12.8 °F 32% 30.25 in 10.0 mi West 12.7 mph 18.4 mph N/A   Clear
1:55 PM 11.8 °F -3.6 °F -13.2 °F 32% 30.25 in 10.0 mi WSW 13.8 mph 19.6 mph N/A   Clear
2:15 PM 12.4 °F -1.6 °F -15.2 °F 28% 30.26 in 10.0 mi WSW 11.5 mph - N/A   Clear
2:35 PM 11.7 °F -3.8 °F -13.2 °F 32% 30.27 in 10.0 mi WSW 13.8 mph 20.7 mph N/A   Clear
2:55 PM 11.8 °F -4.2 °F -15.9 °F 28% 30.27 in 10.0 mi West 15.0 mph 19.6 mph N/A   Clear
3:15 PM 12.0 °F -0.4 °F -15.9 °F 28% 30.27 in 10.0 mi West 9.2 mph 16.1 mph N/A   Clear
3:35 PM 12.2 °F 1.7 °F -16.8 °F 26% 30.27 in 10.0 mi West 6.9 mph 17.3 mph N/A   Clear
3:55 PM 12.0 °F -2.0 °F -15.2 °F 29% 30.27 in 10.0 mi WSW 11.5 mph - N/A   Clear
4:15 PM 12.0 °F 2.7 °F -14.8 °F 29% 30.27 in 10.0 mi WNW 5.8 mph - N/A   Clear
4:35 PM 11.7 °F - -15.0 °F 29% 30.28 in 10.0 mi Calm Calm - N/A   Clear
4:55 PM 11.1 °F - -14.1 °F 31% 30.28 in 10.0 mi Calm Calm - N/A   Clear
5:15 PM 10.6 °F -0.2 °F -14.3 °F 32% 30.29 in 10.0 mi West 6.9 mph - N/A   Clear
5:35 PM 9.9 °F 3.4 °F -13.4 °F 34% 30.29 in 10.0 mi West 3.5 mph - N/A   Clear
5:55 PM 8.2 °F -1.8 °F -13.0 °F 38% 30.30 in 10.0 mi NW 5.8 mph - N/A   Clear
6:15 PM 7.7 °F 1.0 °F -13.0 °F 38% 30.31 in 10.0 mi NW 3.5 mph - N/A   Clear
6:35 PM 7.5 °F 0.8 °F -13.0 °F 39% 30.32 in 10.0 mi NW 3.5 mph - N/A   Clear
6:55 PM 6.6 °F -5.0 °F -14.4 °F 38% 30.32 in 10.0 mi NW 6.9 mph - N/A   Clear
7:15 PM 6.4 °F -5.2 °F -17.0 °F 34% 30.32 in 10.0 mi NW 6.9 mph - N/A   Clear
7:40 PM 4.5 °F -4.7 °F -18.2 °F 34% 30.33 in 10.0 mi NNW 4.6 mph - N/A   Clear
7:55 PM 4.6 °F -6.0 °F -19.3 °F 32% 30.33 in 10.0 mi NW 5.8 mph - N/A   Clear
8:15 PM 3.6 °F - -18.4 °F 36% 30.33 in 10.0 mi Calm Calm - N/A   Clear
8:35 PM 3.4 °F - -19.5 °F 34% 30.34 in 10.0 mi Calm Calm - N/A   Clear
8:55 PM 1.8 °F - -18.2 °F 39% 30.34 in 10.0 mi Calm Calm - N/A   Clear
9:15 PM 2.1 °F - -16.1 °F 43% 30.35 in 10.0 mi Calm Calm - N/A   Clear
9:35 PM 0.9 °F -6.9 °F -16.4 °F 44% 30.35 in 10.0 mi WSW 3.5 mph - N/A   Clear
9:55 PM -2.4 °F - -16.6 °F 51% 30.35 in 10.0 mi Calm Calm - N/A   Clear
10:15 PM -1.5 °F - -14.3 °F 55% 30.36 in 10.0 mi Calm Calm - N/A   Clear
10:35 PM -1.8 °F -13.7 °F -15.0 °F 54% 30.36 in 10.0 mi SW 5.8 mph - N/A   Clear
10:55 PM -3.1 °F -13.5 °F -15.0 °F 57% 30.36 in 10.0 mi SSW 4.6 mph - N/A   Clear
11:15 PM -4.9 °F -15.6 °F -14.8 °F 62% 30.35 in 10.0 mi SSW 4.6 mph - N/A   Clear
11:35 PM -4.2 °F -14.8 °F -14.8 °F 60% 30.35 in 10.0 mi SW 4.6 mph - N/A   Clear
11:55 PM -4.4 °F -12.8 °F -14.3 °F 62% 30.35 in 10.0 mi SW 3.5 mph - N/A   Clear